Tracking 25689 objects as of 7-Jul-2022
HD Live streaming from Space Station
objects crossing your sky now

SEA LAUNCH DEMO

Track SEA LAUNCH DEMO now!
SEA LAUNCH DEMO is classified as:


NORAD ID: 25661
Int'l Code: 1999-014A
Perigee: 618.5 km
Apogee: 36,097.2 km
Inclination: 0.8 °
Period: 645.0 minutes
Semi major axis: 24728 km
RCS: 5.9526 m2 (large)
Launch date: March 28, 1999
Source: Sea Launch (SEAL)
Launch site: SEA LAUNCH (SEAL)
aabbcc
Your satellite tracking list
Your tracking list is empty




NASA's NSSDC Master Catalog

Two Line Element Set (TLE):
1 25661U 99014A   22188.35923863 -.00000165  00000-0 -62765-3 0  9996
2 25661   0.8081 125.7595 7173539 355.7015 327.2871  2.23252557189926
Source of the keplerian elements: AFSPC